TimeAWST,TemperatureF,Dew PointF,Humidity,Sea Level PressureIn,VisibilityMPH,Wind Direction,Wind SpeedMPH,Gust SpeedMPH,PrecipitationIn,Events,Conditions,WindDirDegrees,DateUTC
12:00 AM,82,66,50,29.64,,SE,5.8,,,,,130,2013-03-04 16:00:00
12:00 AM,82.4,66.2,58,29.68,-9999.0,SE,5.8,-,N/A,,Unknown,130,2013-03-04 16:00:00
1:00 AM,84.2,62.6,48,29.68,-9999.0,Calm,Calm,-,N/A,,Unknown,0,2013-03-04 17:00:00
2:00 AM,82,65,47,29.62,,NW,11.5,,,,,310,2013-03-04 18:00:00
2:00 AM,82.4,64.4,54,29.68,-9999.0,NW,11.5,-,N/A,,Unknown,310,2013-03-04 18:00:00
3:00 AM,85,61,34,29.62,,WSW,8.1,,,,,250,2013-03-04 19:00:00
3:00 AM,84.2,60.8,45,29.68,-9999.0,WSW,8.1,-,N/A,,Unknown,250,2013-03-04 19:00:00
4:00 AM,84.2,60.8,45,29.68,-9999.0,South,8.1,-,N/A,,Unknown,190,2013-03-04 20:00:00
5:00 AM,80,63,46,29.66,,Calm,Calm,,,,,,2013-03-04 21:00:00
5:00 AM,80.6,62.6,54,29.71,-9999.0,Calm,Calm,-,N/A,,Unknown,0,2013-03-04 21:00:00
6:00 AM,82,60,37,29.67,,SSW,6.9,,,,,200,2013-03-04 22:00:00
6:00 AM,82.4,60.8,48,29.74,-9999.0,SSW,6.9,-,N/A,,Unknown,200,2013-03-04 22:00:00
7:00 AM,86.0,57.2,37,29.74,-9999.0,South,4.6,-,N/A,,Unknown,190,2013-03-04 23:00:00
8:00 AM,90,57,23,29.69,,SE,8.1,,,,,130,2013-03-05 00:00:00
8:00 AM,89.6,57.2,33,29.74,-9999.0,SE,8.1,-,N/A,,Unknown,130,2013-03-05 00:00:00
9:00 AM,94,58,20,29.70,,East,8.1,,,,,90,2013-03-05 01:00:00
9:00 AM,93.2,57.2,30,29.74,-9999.0,East,8.1,-,N/A,,Unknown,90,2013-03-05 01:00:00
10:00 AM,96.8,59.0,28,29.74,-9999.0,East,11.5,-,N/A,,Unknown,90,2013-03-05 02:00:00
11:00 AM,100,60,18,29.67,,East,9.2,,,,,90,2013-03-05 03:00:00
11:00 AM,100.4,60.8,27,29.74,-9999.0,East,9.2,-,N/A,,Unknown,90,2013-03-05 03:00:00
12:00 PM,103,55,13,29.65,,SE,12.7,,,,,130,2013-03-05 04:00:00
12:00 PM,102.2,55.4,21,29.71,-9999.0,SE,12.7,24.2,N/A,,Unknown,130,2013-03-05 04:00:00
1:00 PM,102.2,53.6,20,29.68,-9999.0,SE,9.2,-,N/A,,Unknown,140,2013-03-05 05:00:00
2:00 PM,106,55,11,29.60,,ESE,8.1,,,,,120,2013-03-05 06:00:00
2:00 PM,105.8,55.4,19,29.65,-9999.0,ESE,8.1,-,N/A,,Unknown,120,2013-03-05 06:00:00
3:00 PM,103,51,10,29.59,,South,5.8,,,,,190,2013-03-05 07:00:00
3:00 PM,102.2,51.8,18,29.65,-9999.0,South,5.8,-,N/A,,Unknown,190,2013-03-05 07:00:00
4:00 PM,104.0,55.4,20,29.65,-9999.0,South,11.5,-,N/A,,Unknown,180,2013-03-05 08:00:00
5:00 PM,103,53,11,29.60,,South,6.9,,,,,180,2013-03-05 09:00:00
5:00 PM,104.0,53.6,19,29.65,-9999.0,South,6.9,-,N/A,,Unknown,180,2013-03-05 09:00:00
6:00 PM,100,55,14,29.60,,SSE,4.6,,,,,160,2013-03-05 10:00:00
6:00 PM,100.4,55.4,22,29.65,-9999.0,SSE,4.6,-,N/A,,Unknown,160,2013-03-05 10:00:00
7:00 PM,95.0,60.8,32,29.68,-9999.0,ESE,3.5,-,N/A,,Unknown,110,2013-03-05 11:00:00
8:00 PM,91,62,28,29.65,,SSE,5.8,,,,,150,2013-03-05 12:00:00
8:00 PM,91.4,62.6,38,29.71,-9999.0,SSE,5.8,-,N/A,,Unknown,150,2013-03-05 12:00:00
9:00 PM,92,60,25,29.66,,SSE,5.8,,,,,160,2013-03-05 13:00:00
9:00 PM,91.4,60.8,36,29.71,-9999.0,SSE,5.8,-,N/A,,Unknown,160,2013-03-05 13:00:00
10:00 PM,91.4,59.0,34,29.71,-9999.0,SSE,8.1,-,N/A,,Unknown,160,2013-03-05 14:00:00
11:00 PM,90,57,23,29.65,,South,6.9,,,,,170,2013-03-05 15:00:00
11:00 PM,89.6,57.2,33,29.71,-9999.0,South,6.9,-,N/A,,Unknown,170,2013-03-05 15:00:00